• Processing (Info)

  • MPEC 2015-M29 : 2015 MN11

    The following Minor Planet Electronic Circular may be linked-to from your own Web pages, but must not otherwise be redistributed electronically.

    A form allowing access to any MPEC is at the bottom of this page.


    Read MPEC 2015-M28 Read MPEC 2015-M30


    M.P.E.C. 2015-M29                                Issued 2015 June 20, 14:08 UT
    
         The Minor Planet Electronic Circulars contain information on unusual
             minor planets and routine data on comets.  They are published
       on behalf of Commission 20 of the International Astronomical Union by the
              Minor Planet Center, Smithsonian Astrophysical Observatory,
                              Cambridge, MA 02138, U.S.A.
    
                 Prepared using the Tamkin Foundation Computer Network
    
                                  MPC@CFA.HARVARD.EDU
                URL https://www.minorplanetcenter.net/    ISSN 1523-6714
    
                                       2015 MN11
    
    Observations:
         K15M11N* C2015 06 18.45883 19 58 23.885-32 53 03.36         20.5 wLEM029F51
         K15M11N  C2015 06 18.46988 19 58 32.999-32 52 59.08         20.7 wLEM029F51
         K15M11N  C2015 06 18.49604 19 58 54.577-32 52 47.59         20.8 wLEM029F51
         K15M11N 2C2015 06 19.52394420 16 06.102-32 37 47.07         19.9 RtEM029568
         K15M11N 2C2015 06 19.52524920 16 07.548-32 37 45.42         19.9 RtEM029568
         K15M11N 2C2015 06 19.52655820 16 08.990-32 37 43.71         19.9 RtEM029568
         K15M11N |C2015 06 20.28930 20 32 40.26 -32 13 02.6          19.9 VuEM029807
         K15M11N |C2015 06 20.29319 20 32 45.71 -32 12 53.5          19.9 VuEM029807
         K15M11N |C2015 06 20.29751 20 32 51.80 -32 12 42.8          20.1 VuEM029807
    
    Observer details:
    568 Mauna Kea.  Observer C. Wipper.  Measurers D. J. Tholen, R. J. Wainscoat.
        3.6-m Canada-France-Hawaii Telescope.
    807 Cerro Tololo.  Observers T. Linder, R. Holmes.  0.41-m f/11
        Ritchey-Chretien + CCD.
    F51 Pan-STARRS 1, Haleakala.  Observers B. Gibson, T. Goggia, N. Primak,
        A. Schultz, M. Willman.  Measurers K. Chambers, S. Chastel, L. Denneau,
        H. Flewelling, M. Huber, E. Lilly, E. Magnier, R. Wainscoat, C. Waters,
        R. Weryk.  1.8-m Ritchey-Chretien + CCD.
    
    Orbital elements:
    2015 MN11                                                Earth MOID = 0.0069 AU
    Epoch 2015 June 27.0 TT = JDT 2457200.5                 MPC
    M 344.41386              (2000.0)            P               Q
    n   0.33922689     Peri.   85.37967     +0.99279195     -0.06839902
    a   2.0361473      Node   278.51966     +0.02226373     +0.91211518
    e   0.7047090      Incl.    5.71119     +0.11776444     +0.40418742
    P   2.91           H   24.4           G   0.15           U   7
    Residuals in seconds of arc
    150618 F51  0.3-  0.0     150619 568  0.0   0.0     150620 807  0.1-  0.1+
    150618 F51  0.1+  0.0     150619 568  0.0   0.0     150620 807  0.1-  0.1-
    150618 F51  0.2+  0.1+    150619 568  0.0   0.0     150620 807  0.2+  0.2+
    
    Ephemeris:
    2015 MN11                a,e,i = 2.04, 0.70, 6                   q = 0.6013
    Date    TT    R. A. (2000) Decl.     Delta      r     Elong.  Phase     V
    2015 05 21    18 25 50.5 -31 19 22   0.4753  1.4211   143.1    25.3    24.7
    ...
    2015 06 05    18 47 44.9 -32 10 39   0.2614  1.2517   152.2    22.2    23.0
    ...
    2015 06 13    19 12 38.4 -32 45 38   0.1563  1.1581   154.0    22.6    21.8
    ...
    2015 06 19    20 06 42.2 -32 45 42   0.08223 1.0868   148.1    29.6    20.4
    2015 06 20    20 25 55.3 -32 23 28   0.07069 1.0748   145.0    32.8    20.2
    2015 06 21    20 51 59.1 -31 35 01   0.05966 1.0629   140.4    37.5    19.9
    ...
    2015 06 27    02 51 49.2 +11 48 12   0.04117 0.9911    50.9   127.2    22.9
    ...
    2015 07 05    05 16 47.4 +27 53 26   0.1321  0.8961    22.5   154.2    29.1
    ...
    2015 07 20    06 02 25.1 +29 38 28   0.3377  0.7313    26.9   141.0    28.4
    
    A. U. Tomatic                (C) Copyright 2015 MPC           M.P.E.C. 2015-M29
    

    Read MPEC 2015-M28 Read MPEC 2015-M30


    MPEC number:

    Enter an MPEC number in one of the following forms:

    • 1997-B01 (the full form)
    • J97B01 (the packed version of the full form)
    • B01 (the abbreviated form)